#timestamp,LO_Frequency,Hit,StdDev 
1506553215.3,286046995.2,Y
1506553235.1,286046997.8,P
1506553255.9,286046996.7,P
1506553275.7,286046997.1,P
1506553295.6,286046999.2,N
1506553315.4,286046998.4,N
1506553335.2,286046996.5,Y
1506553355.1,286047000.8,P
1506553356.0,286047000.8,N
1506553375.8,286047000.8,N
1506553395.7,286046998.1,N
1506553415.5,286046998.6,N
1506553435.3,286046998.9,N
1506553455.2,286046998.6,N
1506553475.0,286046998.4,N
1506553475.9,286046998.4,N
1506553495.8,286046998.8,N
1506553515.6,286046998.3,N
1506553535.4,286046998.8,N
1506553555.3,286046998.2,N
1506553575.1,286046998.6,N
1506553595.8,286046998.5,N
1506553615.7,286047001.0,N
1506553635.5,286047001.1,N
1506553655.4,286047000.6,N
1506553675.2,286047001.1,N
1506553695.0,286046998.8,N
1506553695.9,286046998.8,N
1506553715.8,286047000.7,N
1506553735.6,286046998.6,N
1506553755.4,286047001.1,N
1506553775.3,286047001.0,N
1506553795.1,286046998.5,N
1506553815.9,286046998.5,N
1506553835.7,286047001.1,N
1506553855.5,286046998.2,N
1506553875.4,286046998.5,N
1506553895.2,286046998.3,N
1506553915.0,286046998.3,N
1506553916.0,286046998.3,N
1506553935.8,286046998.6,N
1506553955.6,286046998.4,N
1506553975.5,286046999.1,N
1506553995.3,286046999.3,N
1506554015.1,286046998.3,N
1506554035.9,286046998.6,N
1506554055.7,286046998.5,N
1506554075.6,286046998.3,N
1506554095.4,286046998.5,N
1506554115.2,286047002.7,N
1506554135.1,286047000.1,N
1506554136.0,286047000.1,N
1506554155.8,286047000.3,N
1506554175.6,286047002.8,N
1506554195.5,286046998.4,N
1506554215.3,286047000.7,N
1506554235.2,286047001.2,N
1506554255.9,286047000.2,N
1506554275.7,286047000.9,N
1506554295.6,286047000.5,N
1506554315.4,286047000.2,N
1506554335.3,286047002.8,N
1506554355.1,286047002.5,N
1506554356.0,286047002.5,N
1506554375.8,286046999.9,N
1506554395.7,286046999.7,N
1506554415.5,286047002.7,N
1506554435.3,286047002.4,N
1506554455.2,286046999.8,N
1506554475.0,286046998.4,N
1506554475.9,286046998.4,N
1506554495.8,286047000.5,N
1506554515.6,286047000.2,N
1506554535.4,286047001.6,N
1506554555.3,286047001.5,N
1506554575.1,286046999.7,N
1506554595.9,286047002.7,N
1506554615.7,286047002.6,N
1506554635.5,286047002.5,N
1506554655.4,286047001.8,N
1506554675.2,286047001.8,N
1506554695.1,286047004.4,Y
1506554696.0,286047004.4,P
1506554715.8,286047000.4,N
1506554735.6,286047000.2,N
1506554755.5,286047001.5,N
1506554775.3,286047001.7,N
1506554795.2,286047001.9,N
1506554815.9,286047002.7,N
1506554835.7,286047001.9,N
1506554855.6,286046999.7,N
1506554875.4,286047002.4,N
1506554895.2,286047001.6,N
1506554915.1,286047001.6,N
1506554916.0,286047001.6,N
1506554935.8,286047000.2,N
1506554955.7,286047000.2,N
1506554975.5,286047001.6,N
1506554995.3,286047001.6,N
1506555015.2,286047001.3,N
1506555035.0,286047001.4,N
1506555035.9,286047001.4,N
1506555055.8,286047004.2,Y
1506555075.6,286047002.0,P
1506555095.4,286047002.3,P
1506555115.3,286047001.8,P
1506555135.1,286047002.6,Y
1506555155.8,286047000.7,P
1506555175.7,286047000.9,N
1506555195.5,286047001.0,N
1506555215.4,286046998.3,Y
1506555235.2,286046998.4,P
1506555255.0,286046998.7,N
1506555255.9,286046998.7,N
1506555275.8,286046998.8,N
1506555295.6,286046998.9,N
1506555315.5,286046999.6,N
1506555335.3,286046998.7,N
1506555355.1,286046998.9,N
1506555375.9,286046998.2,N
1506555395.7,286046999.4,N
1506555415.5,286046998.7,N
1506555435.4,286046999.3,N
1506555455.2,286046999.1,N
1506555475.1,286046999.6,N
1506555476.0,286046999.6,N
1506555495.8,286046998.7,N
1506555515.6,286046998.1,N
1506555535.5,286046998.1,N
1506555555.3,286046998.2,N
1506555575.1,286046998.6,N
1506555595.9,286047001.2,N
1506555615.7,286047001.1,N
1506555635.6,286046999.3,N
1506555655.4,286046999.2,N
1506555675.2,286046997.3,Y
1506555695.1,286046996.6,P
1506555696.0,286046996.6,N
1506555715.8,286046996.6,N
1506555735.7,286046999.4,N
1506555755.5,286046996.6,N
1506555775.3,286046999.3,N
1506555795.2,286047001.2,N
1506555815.0,286047000.5,N
1506555815.9,286047000.5,N
1506555835.7,286046998.4,N
1506555855.6,286046998.5,N
1506555875.4,286047000.8,N
1506555895.3,286047001.1,N
1506555915.1,286046998.2,N
1506555935.8,286047002.8,N
1506555955.7,286047001.8,N
1506555975.5,286047002.6,N
1506555995.4,286047002.7,N
1506556015.2,286047000.3,N
1506556035.0,286047000.0,N
1506556035.9,286047000.0,N
1506556055.8,286047002.2,N
1506556075.6,286046999.7,N
1506556095.4,286047002.3,N
1506556115.3,286047004.0,N
1506556135.1,286047004.0,N
1506556155.9,286047003.7,N
1506556175.7,286047004.0,N
1506556195.5,286047001.7,N
1506556215.4,286047001.8,N
1506556235.2,286047001.3,N
1506556255.0,286047003.9,N
1506556255.9,286047003.9,N
1506556275.8,286047001.8,N
1506556295.6,286047002.8,N
1506556315.5,286047002.6,N
1506556335.3,286047001.6,N
1506556355.1,286047004.4,N
1506556375.9,286047004.3,N
1506556395.7,286047001.7,N
1506556415.6,286047001.8,N
1506556435.4,286047001.4,N
1506556455.2,286047003.7,N
1506556475.1,286047003.8,N
1506556476.0,286047003.8,N
1506556495.8,286047003.7,N
1506556515.7,286047001.6,N
1506556535.5,286047003.5,N
1506556555.3,286047004.1,N
1506556575.2,286047003.2,N
1506556595.0,286047004.1,Y
1506556595.9,286047004.1,P
1506556615.7,286047000.1,N
1506556635.6,286047001.1,N
1506556655.4,286046998.1,N
1506556675.3,286047000.2,N
1506556695.1,286046999.7,N
1506556715.8,286047001.6,N
1506556735.7,286047001.6,N
1506556755.5,286046999.8,N
1506556775.4,286046999.8,N
1506556795.2,286047002.4,N
